MMS 1

Last updated on Fri Apr 12 2024 01:02:31 GMT+0100 (British Summer Time)

1 40482U 15011A 24102.00001157 -.00001420 00000+0 00000+0 0 9995 2 40482 43.9364 16.5766 9123345 142.1000 101.6240 0.28399122 15180
UTC large
Height (km)
Speed (km/s)
/
Latitude / Longitude
Inclination (degrees)
Orbital Period (minutes)
Azimuth
Elevation
Range (km)
Doppler Factor

Next 0 passes for location: London (51.5072 / 0.1276)

Sorry there are no passes over London.